QPF
0.01 0.01 0.01 0.01 0.01 0.01 0.02 0.02 0.00 0.01 0.00 0.01 0.01 0.02 0.01 0.01 0.01 0.01 0.00 0.00 0.00 0.00 0.01 0.01 0.01 0.01 0.00 0.01 0.01 0.01 0.01 0.01 0.05 0.05 0.05 0.05 0.05 0.04 0.04 0.05 0.06 0.06 0.07
0.01 0.01 0.01 0.01 0.01 0.01 0.02 0.02 0.01 0.01 0.01 0.01 0.01 0.01 0.01 0.01 0.01 0.01 0.00 0.00 0.01 0.01 0.01 0.00 0.01 0.00 0.00 0.00 0.01 0.01 0.00 0.01 0.02 0.04 0.03 0.04 0.04 0.04 0.04 0.06 0.08 0.07 0.06
0.01 0.01 0.01 0.01 0.01 0.02 0.02 0.02 0.01 0.01 0.01 0.02 0.01 0.01 0.01 0.00 0.01 0.01 0.01 0.01 0.01 0.01 0.01 0.01 0.01 0.00 0.00 0.00 0.01 0.01 0.01 0.01 0.01 0.01 0.02 0.02 0.03 0.04 0.06 0.08 0.08 0.06 0.06
0.01 0.01 0.01 0.01 0.01 0.02 0.03 0.02 0.02 0.01 0.01 0.01 0.01 0.01 0.01 0.01 0.01 0.01 0.01 0.00 0.01 0.01 0.01 0.01 0.00 0.00 0.00 0.00 0.00 0.01 0.01 0.01 0.01 0.01 0.02 0.03 0.03 0.03 0.04 0.06 0.06 0.06 0.06
0.01 0.01 0.01 0.01 0.02 0.02 0.02 0.03 0.02 0.02 0.01 0.01 0.01 0.01 0.01 0.01 0.01 0.00 0.01 0.01 0.00 0.00 0.00 0.00 0.01 0.01 0.01 0.00 0.00 0.00 0.01 0.01 0.01 0.02 0.02 0.03 0.03 0.03 0.03 0.04 0.05 0.06 0.07
0.02 0.02 0.02 0.02 0.02 0.02 0.03 0.02 0.02 0.02 0.01 0.01 0.01 0.01 0.00 0.01 0.01 0.00 0.01 0.01 0.01 0.00 0.00 0.00 0.01 0.01 0.01 0.01 0.01 0.01 0.01 0.02 0.02 0.02 0.02 0.03 0.03 0.03 0.02 0.03 0.04 0.05 0.06
0.02 0.02 0.02 0.02 0.02 0.02 0.02 0.02 0.01 0.01 0.01 0.02 0.01 0.00 0.00 0.00 0.00 0.00 0.01 0.01 0.01 0.01 0.01 0.01 0.00 0.00 0.01 0.01 0.01 0.01 0.01 0.01 0.02 0.02 0.02 0.03 0.04 0.04 0.02 0.03 0.03 0.04 0.04
0.01 0.02 0.02 0.01 0.01 0.01 0.01 0.01 0.01 0.01 0.01 0.02 0.01 0.00 0.00 0.00 0.00 0.00 0.00 0.00 0.00 0.01 0.01 0.02 0.01 0.01 0.01 0.01 0.01 0.01 0.01 0.01 0.01 0.02 0.02 0.01 0.02 0.03 0.03 0.03 0.04 0.03 0.04
0.01 0.01 0.01 0.01 0.01 0.01 0.01 0.01 0.01 0.01 0.01 0.02 0.01 0.00 0.00 0.00 0.00 0.00 0.00 0.00 0.00 0.01 0.01 0.01 0.01 0.01 0.01 0.01 0.00 0.00 0.01 0.01 0.01 0.01 0.01 0.01 0.01 0.02 0.03 0.03 0.04 0.03 0.03
0.00 0.01 0.01 0.01 0.01 0.00 0.00 0.01 0.01 0.00 0.01 0.01 0.01 0.00 0.00 0.00 0.00 0.00 0.00 0.00 0.00 0.01 0.01 0.01 0.01 0.02 0.02 0.01 0.00 0.00 0.00 0.00 0.01 0.01 0.01 0.00 0.01 0.01 0.02 0.02 0.03 0.03 0.02
0.00 0.00 0.00 0.01 0.01 0.01 0.01 0.01 0.01 0.00 0.00 0.00 0.00 0.00 0.01 0.00 0.00 0.00 0.00 0.00 0.01 0.01 0.01 0.01 0.01 0.01 0.01 0.01 0.01 0.01 0.01 0.01 0.01 0.01 0.01 0.01 0.01 0.01 0.02 0.02 0.02 0.02 0.01
0.00 0.00 0.00 0.01 0.01 0.01 0.01 0.00 0.00 0.00 0.00 0.01 0.01 0.01 0.01 0.00 0.00 0.00 0.00 0.01 0.01 0.01 0.01 0.01 0.01 0.01 0.01 0.00 0.00 0.01 0.01 0.01 0.01 0.02 0.02 0.02 0.01 0.01 0.01 0.02 0.01 0.02 0.02
0.00 0.00 0.01 0.01 0.01 0.01 0.01 0.00 0.00 0.00 0.00 0.01 0.01 0.02 0.01 0.01 0.01 0.00 0.00 0.00 0.01 0.01 0.01 0.01 0.01 0.01 0.01 0.01 0.01 0.01 0.01 0.01 0.01 0.01 0.01 0.01 0.01 0.01 0.01 0.01 0.02 0.02 0.02
0.01 0.01 0.01 0.01 0.00 0.00 0.00 0.00 0.00 0.00 0.00 0.00 0.01 0.01 0.01 0.01 0.01 0.02 0.01 0.01 0.00 0.00 0.01 0.01 0.01 0.01 0.01 0.01 0.01 0.00 0.01 0.01 0.01 0.01 0.01 0.01 0.01 0.01 0.01 0.01 0.02 0.03 0.03
0.00 0.00 0.01 0.01 0.01 0.01 0.01 0.01 0.01 0.01 0.00 0.00 0.00 0.01 0.01 0.01 0.01 0.01 0.01 0.01 0.00 0.01 0.01 0.01 0.01 0.01 0.01 0.01 0.01 0.01 0.01 0.01 0.01 0.01 0.01 0.02 0.02 0.01 0.01 0.01 0.01 0.02 0.03
0.00 0.00 0.00 0.00 0.01 0.01 0.01 0.02 0.02 0.02 0.01 0.00 0.01 0.01 0.01 0.01 0.01 0.01 0.01 0.01 0.01 0.01 0.01 0.01 0.01 0.01 0.01 0.02 0.02 0.01 0.01 0.01 0.01 0.01 0.01 0.02 0.02 0.02 0.02 0.01 0.01 0.02 0.02
0.00 0.00 0.00 0.00 0.00 0.00 0.00 0.01 0.03 0.03 0.01 0.01 0.01 0.01 0.01 0.01 0.01 0.01 0.01 0.00 0.00 0.01 0.01 0.01 0.01 0.01 0.01 0.02 0.02 0.02 0.01 0.01 0.00 0.00 0.01 0.01 0.01 0.01 0.01 0.01 0.01 0.01 0.02
0.00 0.00 0.00 0.00 0.00 0.00 0.00 0.00 0.00 0.01 0.01 0.02 0.02 0.01 0.01 0.01 0.01 0.01 0.00 0.00 0.00 0.00 0.01 0.01 0.01 0.01 0.02 0.02 0.01 0.01 0.01 0.01 0.01 0.01 0.00 0.01 0.01 0.01 0.01 0.01 0.00 0.00 0.01
0.00 0.00 0.00 0.00 0.01 0.00 0.00 0.00 0.01 0.01 0.01 0.01 0.01 0.02 0.01 0.02 0.02 0.01 0.01 0.00 0.00 0.01 0.01 0.02 0.02 0.01 0.02 0.02 0.01 0.00 0.00 0.01 0.01 0.01 0.01 0.01 0.01 0.01 0.01 0.01 0.01 0.01 0.01
0.00 0.01 0.01 0.01 0.01 0.01 0.00 0.00 0.00 0.00 0.01 0.01 0.02 0.02 0.02 0.02 0.02 0.02 0.01 0.01 0.02 0.02 0.02 0.02 0.02 0.01 0.01 0.01 0.00 0.00 0.00 0.00 0.01 0.01 0.01 0.01 0.01 0.02 0.02 0.01 0.01 0.00 0.00
0.00 0.01 0.02 0.02 0.02 0.02 0.01 0.01 0.01 0.00 0.00 0.01 0.01 0.02 0.03 0.04 0.03 0.02 0.02 0.02 0.02 0.02 0.02 0.02 0.02 0.01 0.00 0.00 0.00 0.00 0.00 0.00 0.00 0.01 0.01 0.01 0.01 0.01 0.01 0.01 0.01 0.00 0.00
0.00 0.00 0.01 0.03 0.02 0.03 0.02 0.01 0.01 0.01 0.01 0.01 0.02 0.02 0.02 0.03 0.03 0.03 0.03 0.02 0.02 0.02 0.02 0.02 0.02 0.01 0.00 0.00 0.00 0.00 0.00 0.00 0.00 0.00 0.00 0.00 0.00 0.00 0.00 0.00 0.00 0.00 0.00
0.00 0.00 0.00 0.01 0.03 0.02 0.02 0.02 0.01 0.01 0.01 0.01 0.01 0.01 0.01 0.02 0.03 0.03 0.03 0.03 0.02 0.02 0.01 0.01 0.02 0.02 0.01 0.01 0.01 0.00 0.00 0.00 0.00 0.00 0.00 0.00 0.00 0.00 0.00 0.00 0.00 0.00 0.00
0.00 0.00 0.00 0.01 0.01 0.02 0.02 0.01 0.01 0.01 0.01 0.01 0.01 0.01 0.02 0.02 0.02 0.03 0.03 0.03 0.02 0.02 0.01 0.01 0.01 0.01 0.01 0.01 0.01 0.01 0.00 0.00 0.00 0.01 0.01 0.00 0.00 0.00 0.00 0.00 0.00 0.00 0.00
0.01 0.01 0.01 0.01 0.01 0.01 0.01 0.01 0.01 0.01 0.01 0.01 0.01 0.01 0.01 0.01 0.02 0.02 0.02 0.02 0.02 0.03 0.03 0.02 0.01 0.01 0.00 0.01 0.01 0.01 0.01 0.01 0.01 0.01 0.01 0.00 0.00 0.00 0.00 0.00 0.00 0.00 0.00
0.01 0.02 0.01 0.01 0.01 0.01 0.01 0.01 0.01 0.00 0.00 0.01 0.01 0.01 0.01 0.01 0.01 0.01 0.01 0.02 0.02 0.03 0.04 0.04 0.03 0.02 0.02 0.01 0.01 0.00 0.01 0.01 0.01 0.01 0.00 0.00 0.00 0.00 0.00 0.00 0.00 0.00 0.00
MSLP
1022.36 1022.34 1022.25 1022.08 1021.84 1021.55 1021.25 1020.99 1020.80 1020.68 1020.65 1020.69 1020.75 1020.83 1020.88 1020.90 1020.89 1020.86 1020.85 1020.87 1020.96 1021.12 1021.35 1021.65 1021.98 1022.33 1022.66 1022.95 1023.21 1023.42 1023.61 1023.77 1023.92 1024.06 1024.19 1024.30 1024.39 1024.44 1024.46 1024.45 1024.43 1024.40 1024.38
1022.65 1022.69 1022.63 1022.46 1022.19 1021.85 1021.51 1021.21 1021.00 1020.91 1020.92 1021.02 1021.16 1021.30 1021.40 1021.43 1021.40 1021.34 1021.26 1021.22 1021.24 1021.36 1021.56 1021.84 1022.17 1022.51 1022.83 1023.10 1023.33 1023.50 1023.63 1023.75 1023.87 1024.00 1024.13 1024.27 1024.41 1024.52 1024.60 1024.65 1024.67 1024.69 1024.70
1022.81 1022.91 1022.89 1022.74 1022.46 1022.10 1021.73 1021.40 1021.18 1021.10 1021.16 1021.32 1021.54 1021.75 1021.90 1021.97 1021.95 1021.86 1021.74 1021.64 1021.60 1021.66 1021.81 1022.05 1022.34 1022.64 1022.92 1023.15 1023.33 1023.46 1023.55 1023.64 1023.74 1023.87 1024.03 1024.21 1024.39 1024.56 1024.70 1024.81 1024.88 1024.93 1024.97
1022.78 1022.96 1023.00 1022.89 1022.64 1022.28 1021.89 1021.55 1021.33 1021.26 1021.35 1021.57 1021.85 1022.13 1022.35 1022.47 1022.47 1022.38 1022.24 1022.10 1022.01 1022.00 1022.09 1022.26 1022.49 1022.73 1022.96 1023.15 1023.28 1023.37 1023.43 1023.50 1023.60 1023.74 1023.92 1024.14 1024.36 1024.58 1024.77 1024.92 1025.03 1025.11 1025.18
1022.59 1022.85 1022.97 1022.93 1022.73 1022.40 1022.02 1021.68 1021.45 1021.39 1021.49 1021.74 1022.06 1022.40 1022.68 1022.85 1022.90 1022.83 1022.70 1022.55 1022.42 1022.36 1022.39 1022.50 1022.66 1022.84 1023.00 1023.14 1023.23 1023.29 1023.34 1023.40 1023.50 1023.66 1023.86 1024.09 1024.35 1024.59 1024.81 1024.98 1025.12 1025.22 1025.30
1022.27 1022.62 1022.85 1022.90 1022.76 1022.48 1022.13 1021.80 1021.57 1021.49 1021.59 1021.84 1022.18 1022.55 1022.87 1023.09 1023.18 1023.16 1023.06 1022.92 1022.79 1022.70 1022.69 1022.74 1022.84 1022.96 1023.07 1023.16 1023.22 1023.26 1023.31 1023.37 1023.48 1023.64 1023.85 1024.10 1024.36 1024.60 1024.82 1025.00 1025.14 1025.25 1025.34
1021.89 1022.34 1022.68 1022.83 1022.78 1022.57 1022.26 1021.94 1021.71 1021.61 1021.68 1021.90 1022.23 1022.59 1022.93 1023.18 1023.32 1023.35 1023.29 1023.19 1023.08 1022.99 1022.96 1022.98 1023.04 1023.12 1023.19 1023.25 1023.29 1023.33 1023.37 1023.44 1023.55 1023.72 1023.92 1024.15 1024.39 1024.61 1024.81 1024.97 1025.10 1025.21 1025.31
1021.53 1022.08 1022.52 1022.78 1022.83 1022.70 1022.44 1022.15 1021.91 1021.78 1021.80 1021.97 1022.25 1022.58 1022.91 1023.17 1023.35 1023.42 1023.41 1023.36 1023.28 1023.22 1023.19 1023.20 1023.24 1023.30 1023.35 1023.40 1023.44 1023.47 1023.52 1023.60 1023.71 1023.87 1024.05 1024.25 1024.45 1024.64 1024.80 1024.93 1025.05 1025.15 1025.26
1021.24 1021.87 1022.41 1022.77 1022.92 1022.87 1022.68 1022.42 1022.18 1022.03 1022.00 1022.10 1022.31 1022.59 1022.88 1023.13 1023.31 1023.41 1023.45 1023.44 1023.41 1023.39 1023.38 1023.40 1023.44 1023.49 1023.54 1023.58 1023.63 1023.67 1023.73 1023.82 1023.93 1024.07 1024.23 1024.39 1024.54 1024.68 1024.80 1024.90 1025.00 1025.11 1025.24
1021.06 1021.75 1022.36 1022.80 1023.04 1023.08 1022.96 1022.75 1022.53 1022.37 1022.30 1022.34 1022.48 1022.68 1022.91 1023.12 1023.29 1023.41 1023.47 1023.50 1023.51 1023.52 1023.54 1023.57 1023.62 1023.67 1023.72 1023.78 1023.83 1023.89 1023.97 1024.06 1024.18 1024.30 1024.43 1024.56 1024.67 1024.76 1024.84 1024.92 1025.01 1025.13 1025.28
1020.98 1021.70 1022.36 1022.86 1023.17 1023.29 1023.25 1023.11 1022.93 1022.78 1022.69 1022.69 1022.77 1022.90 1023.06 1023.22 1023.36 1023.47 1023.54 1023.58 1023.61 1023.65 1023.68 1023.72 1023.77 1023.83 1023.88 1023.94 1024.01 1024.09 1024.18 1024.29 1024.40 1024.52 1024.64 1024.74 1024.82 1024.88 1024.94 1025.01 1025.10 1025.24 1025.42
1020.95 1021.69 1022.35 1022.89 1023.25 1023.45 1023.49 1023.44 1023.33 1023.23 1023.16 1023.14 1023.18 1023.26 1023.36 1023.46 1023.56 1023.63 1023.69 1023.73 1023.76 1023.80 1023.83 1023.87 1023.91 1023.96 1024.01 1024.07 1024.14 1024.22 1024.33 1024.45 1024.58 1024.71 1024.82 1024.91 1024.98 1025.04 1025.09 1025.16 1025.26 1025.42 1025.64
1020.94 1021.65 1022.30 1022.85 1023.25 1023.51 1023.65 1023.70 1023.69 1023.66 1023.65 1023.65 1023.68 1023.73 1023.78 1023.84 1023.89 1023.92 1023.94 1023.96 1023.98 1023.99 1024.01 1024.03 1024.05 1024.07 1024.10 1024.14 1024.20 1024.29 1024.40 1024.54 1024.68 1024.82 1024.95 1025.05 1025.13 1025.19 1025.26 1025.34 1025.46 1025.65 1025.89
1020.88 1021.56 1022.18 1022.72 1023.15 1023.47 1023.71 1023.86 1023.97 1024.05 1024.11 1024.17 1024.21 1024.26 1024.29 1024.31 1024.31 1024.31 1024.30 1024.28 1024.27 1024.25 1024.23 1024.21 1024.19 1024.17 1024.16 1024.18 1024.21 1024.29 1024.40 1024.54 1024.70 1024.86 1025.01 1025.13 1025.23 1025.32 1025.40 1025.50 1025.64 1025.84 1026.10
1020.73 1021.37 1021.96 1022.49 1022.94 1023.33 1023.65 1023.93 1024.15 1024.35 1024.51 1024.63 1024.72 1024.78 1024.81 1024.81 1024.78 1024.75 1024.70 1024.66 1024.61 1024.55 1024.50 1024.43 1024.36 1024.29 1024.23 1024.19 1024.19 1024.24 1024.33 1024.47 1024.63 1024.81 1024.97 1025.12 1025.25 1025.36 1025.46 1025.58 1025.74 1025.95 1026.22
1020.47 1021.09 1021.66 1022.19 1022.67 1023.11 1023.52 1023.90 1024.25 1024.55 1024.81 1025.01 1025.16 1025.25 1025.28 1025.28 1025.24 1025.19 1025.13 1025.06 1024.98 1024.90 1024.80 1024.69 1024.56 1024.43 1024.32 1024.22 1024.17 1024.17 1024.23 1024.34 1024.49 1024.66 1024.84 1025.01 1025.16 1025.29 1025.41 1025.54 1025.71 1025.92 1026.18
1020.10 1020.73 1021.30 1021.85 1022.37 1022.87 1023.36 1023.83 1024.28 1024.68 1025.02 1025.29 1025.48 1025.61 1025.66 1025.67 1025.64 1025.59 1025.52 1025.45 1025.36 1025.26 1025.13 1024.98 1024.81 1024.62 1024.44 1024.28 1024.16 1024.10 1024.11 1024.18 1024.30 1024.45 1024.62 1024.79 1024.95 1025.09 1025.22 1025.36 1025.52 1025.73 1025.99
1019.63 1020.30 1020.92 1021.50 1022.08 1022.64 1023.21 1023.76 1024.28 1024.74 1025.15 1025.46 1025.70 1025.85 1025.93 1025.95 1025.94 1025.90 1025.85 1025.79 1025.71 1025.61 1025.48 1025.30 1025.09 1024.86 1024.61 1024.39 1024.20 1024.06 1024.00 1024.01 1024.07 1024.19 1024.33 1024.48 1024.62 1024.76 1024.90 1025.04 1025.20 1025.40 1025.64
1019.09 1019.84 1020.53 1021.19 1021.83 1022.46 1023.09 1023.70 1024.27 1024.78 1025.22 1025.56 1025.82 1025.99 1026.09 1026.13 1026.14 1026.13 1026.11 1026.08 1026.02 1025.94 1025.80 1025.62 1025.39 1025.12 1024.82 1024.53 1024.27 1024.06 1023.92 1023.85 1023.84 1023.90 1023.99 1024.10 1024.22 1024.35 1024.47 1024.61 1024.77 1024.97 1025.21
1018.51 1019.36 1020.15 1020.90 1021.63 1022.33 1023.02 1023.67 1024.27 1024.80 1025.25 1025.61 1025.87 1026.05 1026.16 1026.22 1026.26 1026.28 1026.29 1026.29 1026.27 1026.21 1026.09 1025.91 1025.67 1025.37 1025.04 1024.69 1024.37 1024.08 1023.86 1023.70 1023.62 1023.60 1023.63 1023.70 1023.78 1023.88 1023.99 1024.13 1024.29 1024.49 1024.74
1017.92 1018.89 1019.79 1020.64 1021.46 1022.23 1022.97 1023.66 1024.27 1024.81 1025.26 1025.61 1025.87 1026.05 1026.17 1026.25 1026.31 1026.36 1026.41 1026.44 1026.44 1026.40 1026.31 1026.13 1025.89 1025.58 1025.22 1024.83 1024.45 1024.10 1023.81 1023.58 1023.42 1023.32 1023.28 1023.29 1023.33 1023.40 1023.50 1023.63 1023.80 1024.01 1024.27
1017.33 1018.42 1019.43 1020.39 1021.28 1022.13 1022.91 1023.62 1024.25 1024.79 1025.23 1025.57 1025.83 1026.01 1026.14 1026.24 1026.32 1026.40 1026.46 1026.51 1026.54 1026.51 1026.42 1026.26 1026.01 1025.69 1025.32 1024.91 1024.49 1024.10 1023.74 1023.45 1023.22 1023.05 1022.94 1022.89 1022.89 1022.93 1023.01 1023.14 1023.31 1023.54 1023.82
1016.78 1017.96 1019.08 1020.12 1021.08 1021.98 1022.80 1023.53 1024.17 1024.71 1025.15 1025.50 1025.76 1025.95 1026.09 1026.21 1026.30 1026.38 1026.46 1026.51 1026.54 1026.51 1026.42 1026.25 1026.00 1025.68 1025.30 1024.88 1024.45 1024.03 1023.64 1023.29 1023.00 1022.78 1022.61 1022.51 1022.46 1022.46 1022.53 1022.65 1022.83 1023.07 1023.37
1016.29 1017.54 1018.72 1019.82 1020.84 1021.77 1022.62 1023.37 1024.02 1024.57 1025.02 1025.38 1025.65 1025.86 1026.02 1026.14 1026.24 1026.33 1026.39 1026.43 1026.44 1026.39 1026.28 1026.10 1025.84 1025.52 1025.14 1024.73 1024.29 1023.86 1023.45 1023.08 1022.75 1022.48 1022.27 1022.11 1022.02 1021.99 1022.02 1022.13 1022.31 1022.56 1022.88
1015.87 1017.16 1018.37 1019.50 1020.55 1021.50 1022.36 1023.12 1023.78 1024.35 1024.81 1025.19 1025.49 1025.73 1025.91 1026.05 1026.15 1026.22 1026.26 1026.27 1026.24 1026.16 1026.01 1025.81 1025.54 1025.21 1024.83 1024.43 1024.01 1023.58 1023.18 1022.79 1022.45 1022.14 1021.89 1021.68 1021.54 1021.47 1021.47 1021.56 1021.72 1021.97 1022.29
1015.56 1016.84 1018.06 1019.19 1020.23 1021.18 1022.04 1022.80 1023.47 1024.05 1024.54 1024.95 1025.28 1025.55 1025.75 1025.90 1026.01 1026.06 1026.07 1026.04 1025.95 1025.82 1025.63 1025.38 1025.09 1024.76 1024.39 1024.00 1023.60 1023.19 1022.79 1022.41 1022.05 1021.72 1021.43 1021.19 1021.00 1020.88 1020.84 1020.88 1021.02 1021.24 1021.56
Thickness
5729 5730 5730 5728 5725 5723 5721 5719 5717 5716 5714 5712 5709 5706 5703 5704 5704 5704 5704 5703 5702 5701 5699 5697 5696 5695 5693 5691 5690 5689 5687 5685 5684 5682 5678 5677 5678 5679 5680 5681 5682 5682 5681
5725 5726 5726 5725 5723 5720 5719 5717 5716 5714 5713 5710 5708 5706 5703 5701 5701 5701 5701 5700 5699 5698 5697 5695 5693 5692 5690 5688 5687 5686 5683 5681 5681 5677 5672 5667 5668 5672 5675 5676 5677 5677 5677
5724 5723 5723 5722 5721 5718 5717 5717 5715 5713 5711 5709 5707 5704 5701 5699 5697 5697 5697 5697 5697 5696 5694 5693 5691 5689 5688 5686 5685 5684 5681 5678 5677 5676 5671 5665 5662 5664 5668 5670 5670 5671 5671
5725 5724 5723 5721 5720 5719 5718 5716 5713 5711 5710 5708 5705 5701 5696 5693 5694 5694 5694 5695 5694 5693 5692 5691 5689 5687 5686 5684 5683 5682 5680 5678 5674 5673 5672 5671 5668 5663 5660 5662 5664 5665 5666
5725 5724 5723 5722 5721 5720 5717 5714 5712 5710 5708 5707 5704 5700 5696 5694 5693 5693 5692 5692 5692 5691 5690 5689 5687 5686 5684 5683 5681 5680 5679 5676 5674 5671 5670 5668 5666 5665 5660 5656 5657 5658 5659
5726 5724 5723 5722 5719 5718 5715 5713 5710 5708 5707 5705 5702 5700 5696 5693 5691 5690 5689 5689 5689 5688 5688 5687 5686 5684 5683 5681 5680 5678 5677 5675 5673 5671 5669 5667 5664 5662 5659 5655 5653 5652 5653
5724 5721 5720 5718 5716 5715 5713 5711 5708 5705 5704 5703 5701 5699 5697 5694 5692 5689 5688 5687 5686 5685 5685 5685 5683 5682 5681 5680 5678 5676 5675 5673 5671 5669 5668 5667 5665 5664 5660 5656 5651 5649 5649
5723 5721 5720 5717 5715 5714 5712 5709 5707 5704 5702 5701 5699 5698 5697 5694 5692 5690 5688 5687 5686 5685 5685 5683 5682 5680 5680 5678 5676 5674 5673 5671 5669 5668 5667 5665 5664 5663 5661 5657 5652 5646 5644
5721 5720 5718 5716 5715 5713 5711 5709 5706 5703 5701 5699 5698 5696 5695 5693 5691 5690 5689 5687 5686 5685 5684 5682 5680 5679 5678 5676 5674 5672 5670 5669 5667 5666 5665 5663 5662 5661 5660 5658 5655 5649 5642
5718 5717 5716 5715 5713 5712 5710 5708 5705 5703 5700 5698 5696 5696 5694 5693 5691 5689 5687 5686 5685 5684 5682 5680 5678 5677 5676 5674 5672 5670 5668 5666 5665 5663 5662 5661 5660 5659 5658 5656 5654 5652 5646
5716 5715 5713 5713 5711 5709 5707 5704 5702 5700 5698 5696 5695 5694 5692 5691 5690 5688 5686 5685 5684 5682 5680 5679 5677 5675 5673 5672 5670 5667 5666 5664 5662 5661 5660 5658 5657 5655 5654 5653 5651 5649 5646
5714 5713 5711 5709 5707 5705 5703 5701 5700 5698 5696 5695 5693 5692 5691 5689 5687 5686 5685 5683 5682 5680 5679 5677 5675 5673 5671 5669 5667 5665 5663 5661 5659 5658 5657 5655 5654 5652 5651 5649 5647 5645 5643
5708 5707 5706 5705 5703 5701 5700 5699 5697 5695 5694 5693 5690 5689 5687 5686 5685 5684 5683 5681 5680 5678 5676 5675 5673 5671 5669 5667 5665 5663 5661 5659 5657 5656 5654 5652 5651 5648 5647 5645 5643 5641 5640
5703 5701 5699 5698 5698 5697 5696 5695 5694 5693 5691 5689 5687 5685 5684 5683 5682 5681 5680 5678 5677 5675 5673 5672 5670 5669 5666 5664 5663 5660 5658 5656 5655 5653 5652 5650 5648 5646 5644 5642 5640 5637 5634
5697 5697 5694 5693 5692 5691 5691 5691 5690 5689 5688 5685 5682 5681 5680 5679 5678 5676 5675 5674 5673 5672 5670 5668 5666 5665 5663 5661 5659 5657 5655 5653 5651 5650 5648 5647 5646 5645 5643 5640 5636 5634 5630
5694 5693 5692 5690 5688 5687 5686 5686 5685 5684 5683 5680 5678 5677 5676 5674 5673 5672 5671 5669 5668 5666 5665 5664 5662 5660 5660 5658 5657 5655 5652 5649 5647 5645 5644 5643 5642 5641 5639 5637 5635 5632 5628
5690 5689 5688 5687 5686 5685 5683 5681 5680 5679 5678 5675 5674 5673 5672 5670 5669 5668 5666 5664 5663 5661 5660 5658 5657 5656 5655 5654 5653 5651 5648 5645 5643 5641 5640 5639 5638 5636 5634 5632 5630 5628 5626
5687 5686 5685 5684 5683 5682 5680 5678 5676 5674 5673 5671 5669 5668 5667 5665 5664 5663 5661 5660 5659 5657 5655 5653 5653 5651 5651 5650 5649 5647 5644 5641 5639 5637 5635 5634 5632 5631 5628 5626 5624 5621 5620
5685 5685 5684 5682 5679 5678 5676 5673 5670 5669 5667 5665 5664 5663 5662 5661 5659 5658 5657 5656 5654 5652 5650 5649 5648 5646 5646 5646 5644 5642 5638 5635 5634 5633 5631 5630 5628 5627 5624 5621 5618 5615 5614
5681 5680 5679 5677 5674 5672 5671 5667 5664 5662 5661 5660 5660 5659 5658 5657 5655 5654 5653 5651 5650 5648 5646 5644 5643 5642 5641 5641 5639 5637 5633 5630 5628 5627 5626 5626 5624 5622 5620 5616 5613 5610 5608
5675 5674 5672 5670 5669 5667 5665 5661 5659 5658 5658 5657 5656 5655 5654 5652 5651 5649 5648 5647 5645 5643 5641 5639 5638 5637 5637 5636 5634 5632 5629 5626 5623 5621 5620 5620 5620 5618 5616 5613 5610 5608 5605
5667 5667 5664 5663 5663 5661 5659 5656 5654 5654 5653 5651 5650 5649 5648 5648 5647 5644 5643 5641 5639 5637 5634 5633 5631 5631 5631 5631 5629 5628 5626 5623 5620 5618 5616 5615 5615 5613 5611 5608 5606 5604 5600
5659 5659 5657 5656 5655 5655 5653 5651 5650 5649 5647 5644 5643 5642 5642 5642 5641 5639 5637 5635 5633 5631 5629 5627 5625 5624 5624 5624 5624 5622 5621 5619 5616 5614 5613 5611 5609 5607 5605 5603 5600 5597 5593
5650 5650 5649 5647 5647 5647 5647 5646 5646 5644 5641 5638 5636 5635 5634 5634 5634 5633 5632 5630 5628 5626 5624 5623 5621 5619 5617 5617 5616 5615 5613 5611 5609 5607 5606 5604 5601 5599 5597 5595 5592 5589 5586
5643 5642 5641 5640 5640 5640 5640 5640 5639 5637 5634 5632 5630 5629 5628 5627 5626 5625 5625 5625 5625 5624 5622 5620 5618 5614 5612 5613 5612 5609 5607 5605 5602 5599 5596 5593 5591 5588 5586 5584 5583 5580 5577
5635 5634 5634 5633 5634 5633 5632 5632 5632 5630 5628 5625 5624 5622 5621 5620 5619 5618 5617 5618 5618 5618 5618 5617 5614 5613 5612 5609 5607 5605 5603 5599 5596 5591 5588 5585 5583 5580 5578 5576 5573 5571 5569